This is the latest recevied weather packets stored in our database for station/object 2E0RGX-13. If no packets are shown the sender has not sent any weather packets the latest 1 day(s).
| Time | Temp. | Humidity | Pressure | Rain* | Wind** | Luminosity | Snow |
|---|---|---|---|---|---|---|---|
| 1778045878 | 7.78° C | 78% | 1009.5 hPa | 0 mm | 0.45 m/s, 306° | 0 W/m² | - |
| 1778045574 | 7.78° C | 77% | 1009.4 hPa | 0 mm | 2.24 m/s, 2° | 0 W/m² | - |
| 1778045270 | 8.33° C | 77% | 1009.4 hPa | 0 mm | 0.89 m/s, 341° | 0 W/m² | - |
| 1778044966 | 8.33° C | 76% | 1009.3 hPa | 0 mm | 1.79 m/s, 321° | 0 W/m² | - |
| 1778044662 | 8.33° C | 76% | 1009.4 hPa | 0 mm | 0.89 m/s, 325° | 0 W/m² | - |
| 1778044358 | 8.33° C | 77% | 1009.7 hPa | 0 mm | 0.45 m/s, 24° | 0 W/m² | - |
| 1778044054 | 8.33° C | 77% | 1009.3 hPa | 0 mm | 0.89 m/s, 13° | 0 W/m² | - |
| 1778043750 | 8.33° C | 77% | 1009.4 hPa | 0 mm | 0.89 m/s, 284° | 0 W/m² | - |
| 1778043446 | 8.33° C | 78% | 1009.4 hPa | 0 mm | 0.89 m/s, 30° | 0 W/m² | - |
| 1778043141 | 8.33° C | 78% | 1009.4 hPa | 0 mm | 0.89 m/s, 78° | 0 W/m² | - |
| 1778042838 | 8.33° C | 78% | 1009.4 hPa | 0 mm | 0.45 m/s, 252° | 0 W/m² | - |
| 1778042534 | 8.33° C | 78% | 1009.4 hPa | 0 mm | 0.45 m/s, 249° | 0 W/m² | - |
| 1778042230 | 8.33° C | 78% | 1009.5 hPa | 0 mm | 1.34 m/s, 343° | 0 W/m² | - |
| 1778041925 | 8.33° C | 78% | 1009.4 hPa | 0 mm | 0.45 m/s, 5° | 0 W/m² | - |
| 1778041621 | 8.33° C | 78% | 1009 hPa | 0 mm | 0.45 m/s, 346° | 0 W/m² | - |
| 1778041317 | 8.33° C | 78% | 1009.3 hPa | 0 mm | 1.34 m/s, 340° | 0 W/m² | - |
| 1778041013 | 8.33° C | 79% | 1009.4 hPa | 0 mm | 0.89 m/s, 51° | 0 W/m² | - |
| 1778040709 | 8.33° C | 79% | 1009.1 hPa | 0 mm | 0.89 m/s, 57° | 0 W/m² | - |
| 1778040405 | 8.33° C | 78% | 1009.3 hPa | 0 mm | 0.89 m/s, 333° | 0 W/m² | - |
| 1778040101 | 8.33° C | 79% | 1009.2 hPa | 0 mm | 0.45 m/s, 142° | 0 W/m² | - |
| 1778039797 | 8.33° C | 78% | 1009.4 hPa | 0 mm | 0.89 m/s, 348° | 0 W/m² | - |
| 1778039494 | 8.89° C | 78% | 1009.3 hPa | 0 mm | 0.89 m/s, 212° | 0 W/m² | - |
| 1778039190 | 8.89° C | 78% | 1009.3 hPa | 0 mm | 1.79 m/s, 289° | 0 W/m² | - |
| 1778038886 | 8.89° C | 78% | 1009.1 hPa | 0 mm | 0.89 m/s, 271° | 0 W/m² | - |
| 1778038582 | 8.89° C | 78% | 1009.3 hPa | 0 mm | 0 m/s | 0 W/m² | - |
* Rain latest hour (hover to see other rain measurements)
** Current wind speed in m/s (hover to see current wind gust speed)